STARLINK-34152, 64000

Orbit data source: Space-Track

STARLINK-34152, 64000 is a payload satellite owned by SpaceX/Seattle (US) in LEO that was launched on Wed, 14 May 2025 UTC via an FALCON 9 launch vehicle from the Air Force Eastern Test Range (AFETR). Payload-class satellites include a variety of spacecraft equipped with specific instruments for various scientific and technological missions. These include communications satellites like Starlink; space stations such as the ISS; scientific satellites like the Hubble; Earth observation satellites from companies like Planet Labs, Umbra, and HawkEye 360; GPS; miniature CubeSats for education and research; and military/defense satellites.

Loading next visibility...
Identifier
64000, 2025-101G
Orbit
LEO
Country
Flag of USUS
Related business
Manufacturer
SpaceX/Seattle
Mission
Operational Commercial Communications
Bus & Motor
STARLINK V2MO, Unknown motor
Mass
575 kg wet, ~530 kg dry
Launch date (UTC)
2025-05-14 (1 year ago)
Launch vehicle
FALCON 9
Launch site
Air Force Eastern Test Range (AFETR)
Object type
Payload
Rocket body
Debris
Shape & HBR
Box + 2 Pan, 17.7 m
Radar Cross Section
36.964 m², Large (>1 m²)

Expand to show TLE details & history
Last TLE update: 12 hours ago

TLE from 12 hours ago
0 STARLINK-34152
1 64000U 25101G   26171.32935733  .00005757  00000-0  21854-3 0  9998
2 64000  43.0003 138.2203 0001232 264.1778  95.8934 15.27585648 62753
Epoch: 2026-06-20T07:54Z
TLE epoch observation values (Epoch: 2026-06-20T07:54:16.473Z)
Latitude
0.00004°
Longitude
111.10617°
Altitude
482.895 km
Speed
7.626 km/s
True Right ascension
09h 12m 52s
True Declination
0° 00' 00"
Sunlit
Object was in daylight at epoch
Visualization orbit readout
Latitude
Unknown
Longitude
Unknown
Altitude
Unknown
Speed
Unknown
Apparent Right ascension
Unknown
Apparent Declination
Unknown
Sunlit
N/A
Visualization observer readout
Local Sidereal Time
07:15:42
Azimuth
Unknown
Elevation
Unknown
Doppler factor
Unknown
Orbital elements
Apogee altitude
485.823 km
Perigee altitude
484.132 km
Semi-major axis
6,863.114 km
Eccentricity
0.00012
Inclination
43.0003°
RAAN
138.2203°
Arg. of periapsis
264.1778°
True anomaly
95.90744°
Mean anomaly
95.8934°
Eccentric anomaly
95.90042°
Mean motion
3.81734 °/min
Orbital period
94.31 mins
BSTAR
0.00021854
Loading maneuver chart data...
Computing Atmospheric mass density...
Loading historical data...
Loading historical data...
Loading historical data...
Loading historical data...
Loading historical data...
Loading historical data...
Loading historical data...

Documentation

Showing up to 5 results
|